[[{"header":{"parameterUnit":"m.s-1","parameterCategory":2,"la1":30.2991,"la2":30.254,"lo1":-89.0895,"lo2":-89.0444,"dy":0.0017,"dx":0.0017,"nx":28,"ny":28,"refTime":"2023-08-03T03:00:00:Z","depth":"0","parameterNumber":2,"parameterNumberName":"U-component_of_CURRENTS"},"data":[0,0,0,0,0,0,0,0,0,0,0,0,0,0,0,0,0,0,0,0,0,0,0,0,0,0,0,0,0,0,0,0,0,0,0,0,0,0,0,0,0,0,0,0,0,0,0,0,0,0,0,0,0,0,0,0,0,0,0.255,0.255,0,0.2598,0.2598,0.2599,0.2497,0.2494,0.249,0.2487,0.2432,0.2434,0.2436,0,0,0,0,0,0,0,0,0,0,0,0,0,0.2483,0.2484,0.255,0.255,0.2551,0.2597,0.2598,0.2599,0.2498,0.2494,0.2489,0.2485,0.2432,0.2434,0.2436,0,0,0,0,0,0,0,0,0,0,0,0,0,0.2521,0.2484,0.255,0.2504,0.25,0.2597,0.2598,0.2599,0.2499,0.2493,0.2488,0.2483,0.2431,0.2434,0.2437,0.256,0,0,0.2445,0.2446,0,0,0,0,0,0,0,0,0.2519,0.2524,0.251,0.2507,0.2503,0.2534,0.2554,0.258,0.25,0.2502,0.2487,0.2481,0.2459,0.2459,0.2485,0.2557,0.2555,0.2445,0.2447,0.2448,0.2449,0,0,0,0,0,0,0,0.2517,0.2522,0.2571,0.2511,0.2507,0.2519,0.2518,0.256,0.251,0.2501,0.2493,0.2496,0.2456,0.2483,0.2483,0.2554,0.2445,0.2448,0.2449,0.245,0.2672,0.2676,0,0,0,0,0,0,0.2506,0.252,0.257,0.2572,0.2495,0.2524,0.2523,0.2531,0.2511,0.2503,0.2501,0.2491,0.2481,0.248,0.248,0.265,0.2448,0.2451,0.2452,0.2668,0.2673,0.2678,0,0,0,0,0,0,0.2505,0.2511,0.2568,0.2544,0.2552,0.2529,0.2541,0.2535,0.2559,0.2512,0.2501,0.2529,0.2477,0.2476,0.2506,0.2645,0.2452,0.2454,0.2663,0.2669,0.2675,0.2973,0,0,0,0,0,0,0.2503,0.251,0.2539,0.2544,0.2553,0.2658,0.2545,0.254,0.2568,0.2556,0.2534,0.2522,0.2472,0.2502,0.2509,0.2645,0.2457,0.2658,0.2666,0.2673,0.2958,0.2988,0.3015,0,0,0,0,0,0.25,0.2577,0.254,0.2547,0.2584,0.2662,0.2672,0.2637,0.2574,0.263,0.2574,0.2523,0.2557,0.2508,0.2515,0.2655,0.2654,0.2663,0.2673,0.2945,0.2982,0.3014,0,0,0,0,0,0,0.2587,0.2573,0.2533,0.2604,0.2635,0.2644,0.2703,0.2667,0.2677,0.2655,0.2576,0.2567,0.2656,0.2604,0.2551,0.2736,0.2601,0.2612,0.2806,0.2841,0.2869,0.2871,0.2459,0,0,0,0,0,0.2613,0.2654,0.2647,0.2715,0.2732,0.272,0.275,0.2729,0.2726,0.2725,0.2707,0.2686,0.2713,0.2724,0.274,0.2846,0.2807,0.2936,0.2965,0.299,0.2994,0.3061,0.3097,0.2709,0.2709,0.2709,0,0,0.2665,0.2669,0.269,0.2735,0.2753,0.2843,0.2728,0.2801,0.2877,0.2724,0.2832,0.28,0.276,0.2871,0.2908,0.2838,0.3086,0.3002,0.3024,0.3014,0.3075,0.3113,0.3147,0.2715,0.2714,0.2713,0,0,0.2828,0.2796,0.2892,0.2929,0.2968,0.2963,0.2988,0.3015,0.3023,0.3106,0.3023,0.3052,0.3097,0.3105,0.3106,0.3304,0.3239,0.3323,0.348,0.3549,0.3581,0.361,0.3638,0.3666,0.3335,0.3336,0.3336,0,0.2893,0.2977,0.2945,0.3058,0.3078,0.3025,0.3126,0.3181,0.3216,0.3221,0.3169,0.3233,0.3216,0.3327,0.3394,0.338,0.3378,0.3361,0.359,0.3616,0.364,0.3661,0.3689,0.3351,0.335,0.3348,0.3347,0,0.3127,0.3182,0.3254,0.334,0.3387,0.3464,0.3487,0.3545,0.3517,0.3526,0.3613,0.3592,0.3596,0.3645,0.3583,0.3762,0.3696,0.3627,0.3509,0.3698,0.3707,0.3731,0.3373,0.3368,0.3363,0.3359,0,0,0.3273,0.338,0.3398,0.3426,0.3504,0.3551,0.369,0.3749,0.3787,0.3861,0.3913,0.4013,0.3949,0.3945,0.3906,0.3982,0.4176,0.3894,0.389,0.3934,0.4314,0.4077,0.4078,0.4157,0.4162,0.4166,0.4263,0,0.3439,0.3623,0.3642,0.3793,0.3858,0.3828,0.3936,0.399,0.3997,0.4058,0.407,0.4114,0.4086,0.4072,0.4172,0.4142,0.4246,0.4154,0.4111,0.4109,0.3887,0.41,0.38,0.3844,0.4285,0.4289,0.4291,0,0.3648,0.3712,0.3864,0.3903,0.3928,0.4017,0.4047,0.414,0.4215,0.4213,0.4274,0.4254,0.4377,0.4305,0.4443,0.4384,0.4394,0.4388,0.439,0.4071,0.3915,0.3719,0.3868,0.3745,0.4325,0.4322,0.432,0,0.37,0.3849,0.3925,0.396,0.4044,0.4078,0.4107,0.4175,0.4203,0.4295,0.4294,0.443,0.4434,0.4536,0.4525,0.4503,0.4636,0.4583,0.44,0.4381,0.4061,0.4003,0.4083,0.4725,0.4725,0.4725,0.4724,0,0.382,0.3885,0.3944,0.399,0.4048,0.41,0.4151,0.4196,0.4251,0.4277,0.4358,0.4386,0.4494,0.4553,0.4592,0.4549,0.4696,0.4465,0.4411,0.4153,0.4105,0.3919,0.391,0.4728,0.4727,0.4727,0.4726,0,0.3859,0.3917,0.3995,0.4061,0.4076,0.4107,0.4136,0.417,0.4222,0.4256,0.4282,0.4372,0.4431,0.451,0.4615,0.4554,0.4417,0.453,0.4192,0.4095,0.3748,0.3764,0.3619,0.3549,0.4354,0.4349,0.4344,0,0.3886,0.3938,0.4005,0.4023,0.4043,0.408,0.4099,0.4149,0.4165,0.4225,0.4235,0.4302,0.4306,0.4353,0.4278,0.4288,0.4246,0.3992,0.3895,0.3721,0.3705,0.3596,0.3545,0.3617,0.3607,0.3599,0.3593,0,0.3913,0.3938,0.3988,0.4011,0.4033,0.4031,0.4052,0.4052,0.4096,0.4098,0.409,0.4098,0.4074,0.3902,0.3861,0.3831,0.3733,0.3819,0.3757,0.324,0.3014,0.2917,0.3554,0.3521,0.3528,0.3534,0.3538,0.354,0.3917,0.3932,0.399,0.3987,0.4,0.3957,0.3891,0.3897,0.3863,0.378,0.3899,0.3758,0.3586,0.3449,0.341,0.3058,0.3227,0.291,0.2983,0.2917,0.2725,0.3174,0.2989,0.2993,0.2996,0.2999,0.3002,0,0.3907,0.3932,0.3949,0.3933,0.3865,0.3887,0.3833,0.3701,0.357,0.353,0.3464,0.3138,0.2902,0.276,0.241,0.2253,0.2189,0.2192,0.203,0.2062,0.2546,0.2383,0.1911,0.1911,0.1911,0.1911,0.1912,0.1912,0.3928,0.3936,0.3917,0.3796,0.374,0.3551,0.3462,0.3284,0.3176,0.2848,0.2599,0.2538,0.2347,0.2022,0.1737,0.1692,0.1651,0.1449,0.1651,0.2022,0.2096,0.2166,0.2012,0.147,0.1469,0.0973,0.097,0.0967]},{"header":{"parameterUnit":"m.s-1","parameterCategory":2,"la1":30.2991,"la2":30.254,"lo1":-89.0895,"lo2":-89.0444,"dy":0.0017,"dx":0.0017,"nx":28,"ny":28,"refTime":"2023-08-03T03:00:00:Z","depth":"0","parameterNumber":3,"parameterNumberName":"V-component_of_CURRENTS"},"data":[0,0,0,0,0,0,0,0,0,0,0,0,0,0,0,0,0,0,0,0,0,0,0,0,0,0,0,0,0,0,0,0,0,0,0,0,0,0,0,0,0,0,0,0,0,0,0,0,0,0,0,0,0,0,0,0,0,0,0.042,0.042,0,0.0387,0.0387,0.0386,0.0294,0.0292,0.0291,0.0289,0.0268,0.0269,0.027,0,0,0,0,0,0,0,0,0,0,0,0,0,0.0357,0.0359,0.042,0.042,0.0419,0.0387,0.0387,0.0386,0.0294,0.0292,0.029,0.0288,0.0268,0.0269,0.027,0,0,0,0,0,0,0,0,0,0,0,0,0,0.0358,0.0359,0.042,0.0372,0.0368,0.0387,0.0387,0.0386,0.0295,0.0292,0.029,0.0287,0.0267,0.0269,0.027,0.0332,0,0,0.0275,0.0276,0,0,0,0,0,0,0,0,0.0358,0.036,0.0379,0.0375,0.037,0.0344,0.0357,0.0369,0.0295,0.0319,0.0289,0.0286,0.0298,0.0297,0.0293,0.0331,0.033,0.0275,0.0276,0.0277,0.0277,0,0,0,0,0,0,0,0.0358,0.036,0.0404,0.0379,0.0374,0.0337,0.0334,0.0358,0.0322,0.0317,0.0311,0.0313,0.0295,0.0291,0.0292,0.033,0.0275,0.0277,0.0278,0.0278,0.0399,0.0401,0,0,0,0,0,0,0.0374,0.0361,0.0405,0.0403,0.0361,0.034,0.0337,0.0353,0.0321,0.0315,0.0315,0.0309,0.029,0.029,0.0291,0.034,0.0277,0.0278,0.0279,0.0397,0.0399,0.0402,0,0,0,0,0,0,0.0373,0.0379,0.0406,0.0382,0.0383,0.0345,0.0363,0.0354,0.0352,0.032,0.0312,0.0322,0.0288,0.0288,0.0298,0.0339,0.0279,0.028,0.0394,0.0397,0.0401,0.0454,0,0,0,0,0,0,0.0371,0.0379,0.0401,0.0384,0.0386,0.0439,0.0366,0.0355,0.0358,0.0349,0.0325,0.0319,0.0286,0.0295,0.0299,0.034,0.0282,0.0391,0.0395,0.0399,0.045,0.0459,0.0467,0,0,0,0,0,0.0369,0.0415,0.0402,0.0408,0.0416,0.0442,0.044,0.0399,0.0361,0.0383,0.0339,0.032,0.0326,0.0298,0.0302,0.0345,0.0389,0.0394,0.0399,0.0446,0.0457,0.0467,0,0,0,0,0,0,0.0398,0.041,0.0395,0.0442,0.0449,0.0427,0.0441,0.0419,0.0403,0.0384,0.0342,0.0335,0.0356,0.0356,0.0327,0.0395,0.036,0.0366,0.0394,0.0405,0.0413,0.0434,0.0283,0,0,0,0,0,0.0419,0.0457,0.0456,0.0495,0.0499,0.0475,0.0479,0.0457,0.0439,0.0428,0.041,0.0393,0.0387,0.0395,0.0391,0.0441,0.0447,0.0476,0.0484,0.0492,0.0514,0.058,0.0596,0.0418,0.0418,0.0418,0,0,0.0438,0.0454,0.0471,0.0505,0.0497,0.0497,0.047,0.0488,0.0483,0.0434,0.0429,0.0422,0.0403,0.0429,0.0444,0.0433,0.0537,0.0498,0.0504,0.0523,0.0587,0.0604,0.0619,0.0422,0.0421,0.0421,0,0,0.0475,0.0511,0.0532,0.0542,0.0551,0.0541,0.0553,0.0545,0.0538,0.055,0.0499,0.0525,0.0523,0.0522,0.0516,0.0589,0.0572,0.0591,0.0663,0.0727,0.0742,0.0755,0.0743,0.0756,0.0607,0.0607,0.0607,0,0.0489,0.0516,0.0545,0.0554,0.0558,0.0559,0.0561,0.0566,0.0562,0.0585,0.0556,0.0587,0.0569,0.0609,0.0615,0.0611,0.0616,0.0615,0.0738,0.0752,0.0764,0.075,0.0762,0.061,0.061,0.061,0.0609,0,0.0516,0.0535,0.0554,0.0557,0.0577,0.0596,0.0597,0.0627,0.0626,0.0637,0.0697,0.0689,0.0718,0.072,0.0678,0.077,0.0728,0.0728,0.0707,0.0786,0.0764,0.0776,0.0615,0.0614,0.0613,0.0612,0,0,0.0542,0.0565,0.0567,0.057,0.0581,0.0605,0.0623,0.0663,0.0709,0.0733,0.0808,0.0806,0.0841,0.0841,0.0828,0.0882,0.0948,0.0846,0.0848,0.0826,0.1038,0.097,0.0975,0.097,0.0974,0.0976,0.0969,0,0.0541,0.0562,0.0573,0.0588,0.0594,0.0618,0.0648,0.0694,0.0743,0.0829,0.0872,0.0931,0.0874,0.0913,0.0957,0.0971,0.0991,0.0947,0.0973,0.0973,0.0899,0.0993,0.0967,0.0958,0.0981,0.0983,0.0984,0,0.0539,0.0562,0.0575,0.0618,0.0627,0.0641,0.073,0.0762,0.0875,0.0927,0.1013,0.1052,0.1135,0.1084,0.1146,0.112,0.1077,0.1072,0.1072,0.1008,0.0932,0.0894,0.0979,0.0922,0.1003,0.1001,0.1,0,0.0539,0.0562,0.0582,0.059,0.0637,0.0667,0.0703,0.08,0.0875,0.101,0.1105,0.1189,0.1266,0.1267,0.1239,0.1207,0.1297,0.1254,0.1135,0.1125,0.1112,0.1096,0.1146,0.1282,0.1282,0.1282,0.1282,0,0.0536,0.0552,0.0588,0.0602,0.0664,0.0686,0.0786,0.0845,0.0975,0.1106,0.1165,0.1291,0.1326,0.1375,0.1306,0.127,0.1346,0.1169,0.1149,0.1122,0.1109,0.1062,0.1038,0.1282,0.1282,0.1282,0.1282,0,0.0531,0.0544,0.058,0.0637,0.0661,0.0711,0.0826,0.0923,0.1023,0.1203,0.1258,0.1404,0.1474,0.1452,0.1469,0.1365,0.1293,0.1267,0.1193,0.1165,0.0988,0.0968,0.1013,0.101,0.1155,0.1154,0.1153,0,0.0537,0.0551,0.0614,0.0659,0.0686,0.0765,0.0845,0.0941,0.1055,0.1275,0.1379,0.15,0.1605,0.1583,0.1454,0.1329,0.1264,0.117,0.1113,0.1003,0.0967,0.0957,0.0952,0.109,0.1088,0.1087,0.1086,0,0.0568,0.0584,0.0627,0.0708,0.078,0.0879,0.0991,0.1083,0.1234,0.138,0.1579,0.1676,0.1665,0.1585,0.1399,0.1291,0.115,0.1137,0.109,0.0987,0.0923,0.09,0.1009,0.1075,0.1076,0.1077,0.1078,0.1078,0.0612,0.0645,0.0701,0.0776,0.0869,0.0998,0.1085,0.1221,0.1394,0.1623,0.1696,0.1838,0.1677,0.1455,0.1313,0.1019,0.1067,0.0911,0.0908,0.0917,0.0899,0.0942,0.0946,0.0946,0.0947,0.0947,0.0947,0,0.0666,0.0701,0.0777,0.0876,0.0982,0.1021,0.1197,0.1289,0.1478,0.1687,0.1838,0.1801,0.1611,0.1374,0.0994,0.0825,0.0792,0.0745,0.0751,0.0767,0.0861,0.0842,0.0747,0.0747,0.0747,0.0747,0.0747,0.0747,0.0708,0.0767,0.0791,0.0952,0.1034,0.1168,0.1266,0.1409,0.1555,0.1739,0.181,0.186,0.1661,0.11,0.0757,0.0688,0.0645,0.0596,0.0607,0.0667,0.0683,0.0698,0.0676,0.0547,0.0547,0.0523,0.0523,0.0522]}],[{"header":{"parameterUnit":"m.s-1","parameterCategory":2,"la1":30.2991,"la2":30.254,"lo1":-89.0895,"lo2":-89.0444,"dy":0.0017,"dx":0.0017,"nx":28,"ny":28,"refTime":"2023-08-03T03:00:00:Z","depth":"2","parameterNumber":2,"parameterNumberName":"U-component_of_CURRENTS"},"data":[0,0,0,0,0,0,0,0,0,0,0,0,0,0,0,0,0,0,0,0,0,0,0,0,0,0,0,0,0,0,0,0,0,0,0,0,0,0,0,0,0,0,0,0,0,0,0,0,0,0,0,0,0,0,0,0,0,0,0.1952,0.1953,0,0.1968,0.1968,0.1968,0.1937,0.1936,0.1935,0.1935,0.1929,0.193,0.193,0,0,0,0,0,0,0,0,0,0,0,0,0,0.1936,0.1936,0.1952,0.1953,0.1953,0.1968,0.1968,0.1968,0.1937,0.1936,0.1935,0.1934,0.1929,0.193,0.193,0,0,0,0,0,0,0,0,0,0,0,0,0,0.1944,0.1936,0.1952,0.1942,0.1941,0.1968,0.1968,0.1968,0.1937,0.1936,0.1935,0.1934,0.1929,0.193,0.193,0.1958,0,0,0.1933,0.1933,0,0,0,0,0,0,0,0,0.1943,0.1944,0.1943,0.1943,0.1942,0.1952,0.196,0.1964,0.1938,0.1936,0.1935,0.1934,0.1938,0.1938,0.1939,0.1957,0.1957,0.1933,0.1933,0.1934,0.1934,0,0,0,0,0,0,0,0.1943,0.1943,0.1955,0.1943,0.1943,0.1951,0.195,0.1961,0.194,0.1936,0.1934,0.1941,0.1937,0.1938,0.1939,0.1957,0.1933,0.1934,0.1934,0.1934,0.2067,0.207,0,0,0,0,0,0,0.1946,0.1943,0.1955,0.1956,0.1943,0.1952,0.1951,0.1947,0.194,0.1939,0.1942,0.194,0.1938,0.1938,0.1938,0.2061,0.1934,0.1935,0.1935,0.2064,0.2068,0.2071,0,0,0,0,0,0,0.1945,0.1947,0.1954,0.1953,0.1955,0.1953,0.195,0.1948,0.197,0.1946,0.1943,0.1967,0.1937,0.1937,0.1983,0.2056,0.1935,0.1936,0.206,0.2065,0.2069,0.2247,0,0,0,0,0,0,0.1945,0.1946,0.1955,0.1953,0.1955,0.1996,0.1951,0.195,0.1976,0.1973,0.1967,0.1964,0.1936,0.1982,0.1984,0.2055,0.1936,0.2056,0.2062,0.2068,0.2237,0.2257,0.2274,0,0,0,0,0,0.1944,0.1969,0.1955,0.1957,0.1963,0.1999,0.2002,0.1994,0.1978,0.2005,0.2005,0.1965,0.2019,0.1986,0.1987,0.206,0.2054,0.2061,0.2067,0.2229,0.2253,0.2273,0,0,0,0,0,0,0.1981,0.1969,0.1953,0.1975,0.1994,0.1995,0.2015,0.2016,0.2037,0.203,0.2005,0.2005,0.2079,0.2041,0.2005,0.2114,0.203,0.2037,0.2152,0.2174,0.2192,0.217,0.1937,0,0,0,0,0,0.1989,0.2005,0.1997,0.2028,0.2024,0.2024,0.204,0.2038,0.2052,0.2059,0.2085,0.2089,0.2106,0.2116,0.2134,0.2188,0.2188,0.2234,0.2253,0.2269,0.2251,0.2403,0.2435,0.2093,0.2093,0.2093,0,0,0.2014,0.2016,0.2023,0.2038,0.2037,0.2031,0.203,0.2062,0.2079,0.2057,0.2124,0.2167,0.2138,0.2211,0.2238,0.2188,0.2356,0.2277,0.2291,0.2264,0.2414,0.2447,0.2477,0.2098,0.2097,0.2096,0,0,0.2061,0.2064,0.207,0.2071,0.2081,0.2079,0.2095,0.2128,0.2159,0.2214,0.2224,0.2308,0.2327,0.2356,0.2349,0.2473,0.2461,0.2496,0.2562,0.2712,0.2742,0.2768,0.2772,0.2797,0.2493,0.2493,0.2494,0,0.2081,0.2085,0.209,0.208,0.2085,0.2095,0.2097,0.2122,0.2192,0.2251,0.2244,0.2391,0.2378,0.2476,0.2515,0.2515,0.2565,0.2484,0.274,0.2766,0.279,0.2787,0.2813,0.2503,0.2502,0.2501,0.25,0,0.2091,0.2103,0.2113,0.2087,0.2104,0.2125,0.2133,0.2206,0.2249,0.2296,0.2457,0.2508,0.2596,0.2627,0.2586,0.2775,0.274,0.2764,0.269,0.2836,0.2822,0.2846,0.2516,0.2513,0.251,0.2508,0,0,0.214,0.2114,0.2123,0.2119,0.211,0.2133,0.2173,0.2241,0.2304,0.2424,0.2561,0.2637,0.2743,0.2745,0.2801,0.291,0.3097,0.2914,0.2918,0.2922,0.3367,0.3101,0.3099,0.322,0.3227,0.3231,0.3275,0,0.2151,0.2128,0.2125,0.2143,0.2137,0.216,0.2206,0.2277,0.2359,0.2509,0.2629,0.2771,0.2763,0.2871,0.2989,0.3104,0.3177,0.3076,0.3216,0.3216,0.2971,0.3125,0.2869,0.2869,0.3297,0.3301,0.3304,0,0.2173,0.216,0.215,0.2186,0.2186,0.221,0.2313,0.2358,0.2521,0.2607,0.2788,0.2898,0.31,0.308,0.3324,0.3289,0.332,0.337,0.3375,0.3075,0.2996,0.28,0.2895,0.3342,0.3339,0.3337,0.3334,0,0.2223,0.221,0.2211,0.2203,0.2216,0.2273,0.2312,0.2425,0.2507,0.2724,0.2839,0.3073,0.325,0.3381,0.3449,0.345,0.3667,0.3679,0.3436,0.3413,0.3181,0.3125,0.3815,0.3815,0.3815,0.3815,0.3815,0,0.2249,0.2273,0.2242,0.2245,0.2301,0.2316,0.2429,0.2497,0.2653,0.2784,0.2937,0.3105,0.3361,0.3499,0.352,0.3526,0.3729,0.3447,0.3439,0.3222,0.3173,0.3571,0.3542,0.3817,0.3816,0.3816,0.3816,0,0.2306,0.2279,0.2295,0.2306,0.2327,0.2377,0.2479,0.2558,0.2698,0.289,0.2988,0.3227,0.3376,0.3474,0.3671,0.3601,0.3625,0.3546,0.3182,0.3127,0.324,0.322,0.3326,0.3318,0.3311,0.3305,0.33,0,0.2294,0.2302,0.2326,0.234,0.2356,0.2428,0.2483,0.2596,0.2684,0.2941,0.3045,0.3248,0.3317,0.3405,0.334,0.3266,0.3424,0.2983,0.2912,0.3224,0.3207,0.3198,0.3188,0.267,0.2661,0.2653,0.2646,0,0.2256,0.2291,0.2286,0.2345,0.2397,0.2452,0.255,0.2611,0.2769,0.2879,0.3029,0.3094,0.3141,0.297,0.2847,0.2787,0.2976,0.2808,0.3356,0.2791,0.2599,0.2583,0.2598,0.2576,0.2583,0.2588,0.2592,0.2595,0.2206,0.2221,0.2241,0.2327,0.2389,0.2466,0.249,0.2551,0.2626,0.2697,0.2841,0.2774,0.2778,0.2413,0.2306,0.223,0.2433,0.2363,0.2393,0.2431,0.2305,0.2108,0.1961,0.1965,0.1968,0.197,0.1973,0,0.2096,0.2182,0.2217,0.2285,0.2315,0.243,0.252,0.2446,0.2447,0.2442,0.2435,0.2102,0.1927,0.1934,0.1681,0.1619,0.168,0.1578,0.1678,0.1746,0.1807,0.1656,0.1138,0.1136,0.1133,0.1131,0,0,0.2042,0.2053,0.2126,0.2181,0.2268,0.2288,0.2332,0.2204,0.2136,0.1897,0.1785,0.1801,0.1849,0.1461,0.1385,0.124,0.1501,0.1182,0.1849,0.2036,0.2095,0.2243,0.2082,0,0,0,0,0]},{"header":{"parameterUnit":"m.s-1","parameterCategory":2,"la1":30.2991,"la2":30.254,"lo1":-89.0895,"lo2":-89.0444,"dy":0.0017,"dx":0.0017,"nx":28,"ny":28,"refTime":"2023-08-03T03:00:00:Z","depth":"2","parameterNumber":3,"parameterNumberName":"V-component_of_CURRENTS"},"data":[0,0,0,0,0,0,0,0,0,0,0,0,0,0,0,0,0,0,0,0,0,0,0,0,0,0,0,0,0,0,0,0,0,0,0,0,0,0,0,0,0,0,0,0,0,0,0,0,0,0,0,0,0,0,0,0,0,0,0.002,0.002,0,-0.0028,-0.0029,-0.003,-0.0051,-0.005,-0.005,-0.005,-0.0047,-0.0047,-0.0048,0,0,0,0,0,0,0,0,0,0,0,0,0,0.0024,0.0024,0.002,0.002,0.002,-0.0028,-0.0029,-0.003,-0.0051,-0.005,-0.005,-0.0049,-0.0047,-0.0047,-0.0048,0,0,0,0,0,0,0,0,0,0,0,0,0,0.0001,0.0024,0.002,0.0006,0.0004,-0.0028,-0.0029,-0.003,-0.0051,-0.005,-0.005,-0.0049,-0.0047,-0.0047,-0.0048,-0.0061,0,0,-0.0049,-0.0049,0,0,0,0,0,0,0,0,0.0002,0.0,0.0008,0.0007,0.0005,-0.003,-0.0027,-0.0037,-0.0051,-0.0033,-0.005,-0.0049,-0.0035,-0.0036,-0.0052,-0.0061,-0.0061,-0.0049,-0.0049,-0.0049,-0.005,0,0,0,0,0,0,0,0.0004,0.0002,-0.0002,0.0008,0.0006,-0.0022,-0.0025,-0.003,-0.0038,-0.0035,-0.0036,-0.0036,-0.0036,-0.0052,-0.0052,-0.0061,-0.0049,-0.0049,-0.005,-0.005,-0.003,-0.0029,0,0,0,0,0,0,0.0019,0.0004,-0.0001,-0.0003,0.0009,-0.0022,-0.0025,-0.0022,-0.0039,-0.0041,-0.0036,-0.0037,-0.0051,-0.0051,-0.0052,-0.0068,-0.0049,-0.005,-0.005,-0.003,-0.0029,-0.0029,0,0,0,0,0,0,0.002,0.002,0.0001,0.0001,-0.0003,-0.0022,-0.0019,-0.0023,-0.0037,-0.0041,-0.0042,-0.0045,-0.0051,-0.0051,-0.0044,-0.0068,-0.005,-0.005,-0.0031,-0.003,-0.0029,-0.01,0,0,0,0,0,0,0.002,0.002,0.0023,0.0003,-0.0002,-0.0021,-0.0019,-0.0024,-0.0036,-0.0037,-0.0048,-0.0048,-0.005,-0.0043,-0.0045,-0.0068,-0.0051,-0.0032,-0.0031,-0.0029,-0.0099,-0.0102,-0.0104,0,0,0,0,0,0.002,0.0016,0.0023,0.0023,0.0005,-0.0021,-0.0027,-0.0041,-0.0037,-0.005,-0.0042,-0.0047,-0.0034,-0.0043,-0.0045,-0.0069,-0.0033,-0.0031,-0.0029,-0.0098,-0.0101,-0.0104,0,0,0,0,0,0,0.0012,0.0013,0.0021,0.0017,0.0002,-0.0023,-0.0036,-0.0041,-0.0049,-0.0041,-0.0044,-0.0044,-0.0038,-0.0034,-0.0044,-0.0051,-0.0032,-0.003,-0.0083,-0.0086,-0.0089,-0.0068,-0.0051,0,0,0,0,0,0.0017,0.0021,0.0011,0.001,0.0001,-0.0015,-0.0027,-0.0031,-0.0039,-0.0043,-0.0043,-0.0035,-0.0034,-0.0044,-0.0029,-0.0049,0.0005,-0.0058,-0.006,-0.0063,-0.0042,0.0092,0.0104,-0.0023,-0.0023,-0.0023,0,0,0.0017,0.0017,0.0021,0.001,-0.0004,-0.0031,-0.0023,-0.0036,-0.0063,-0.0039,-0.0062,-0.0036,-0.0032,-0.0043,-0.0043,-0.0049,-0.0019,-0.0061,-0.0064,-0.004,0.0096,0.0108,0.0119,-0.0022,-0.0022,-0.0022,0,0,-0.0004,0.0016,-0.0001,-0.0008,-0.0019,-0.0034,-0.0036,-0.0051,-0.0065,-0.0086,-0.0058,-0.0025,-0.0062,-0.0037,-0.0041,-0.0041,-0.0019,-0.0059,-0.0084,0.0044,0.0056,0.0068,0.0058,0.007,-0.0082,-0.0082,-0.0082,0,-0.0009,-0.0018,-0.0012,-0.0034,-0.0036,-0.0037,-0.006,-0.0088,-0.0094,-0.009,-0.0099,-0.0051,-0.0054,-0.003,-0.0051,-0.0048,-0.0014,-0.0087,0.0042,0.0055,0.0068,0.0057,0.007,-0.0085,-0.0085,-0.0084,-0.0084,0,-0.0048,-0.0049,-0.006,-0.0081,-0.0092,-0.01,-0.0125,-0.0129,-0.0141,-0.0152,-0.0115,-0.0083,-0.0047,-0.0058,-0.0083,-0.0002,-0.0028,0.0037,0.0045,0.0077,0.0061,0.0076,-0.009,-0.0089,-0.0088,-0.0087,0,0,-0.007,-0.0085,-0.0084,-0.0084,-0.0102,-0.0109,-0.0148,-0.0168,-0.0163,-0.0165,-0.0131,-0.0136,-0.008,-0.0072,-0.0047,0.003,0.0091,0.0042,0.005,0.002,0.0276,0.0209,0.0219,0.0183,0.0188,0.0192,0.0192,0,-0.0101,-0.0126,-0.0133,-0.0153,-0.0163,-0.0156,-0.0184,-0.0192,-0.02,-0.0167,-0.0118,-0.0072,-0.0104,-0.0056,0.0009,0.0138,0.0145,0.0079,0.0262,0.0265,0.0198,0.0243,0.0226,0.0226,0.0208,0.0211,0.0213,0,-0.0144,-0.0142,-0.0164,-0.0152,-0.0156,-0.018,-0.0164,-0.0185,-0.016,-0.0149,-0.0088,-0.0038,0.007,0.0059,0.0235,0.0196,0.0197,0.026,0.0264,0.0255,0.0233,0.0215,0.0256,0.0239,0.0237,0.0235,0.0233,0,-0.0144,-0.0161,-0.0166,-0.0162,-0.0166,-0.0174,-0.0183,-0.0179,-0.0152,-0.0102,-0.0027,0.0064,0.0203,0.0266,0.0338,0.0307,0.053,0.0521,0.0426,0.0416,0.0469,0.0457,0.0598,0.0598,0.0598,0.0598,0.0598,0,-0.0161,-0.0166,-0.0166,-0.0159,-0.0154,-0.0165,-0.015,-0.015,-0.0087,0.0011,0.0008,0.0159,0.0284,0.0406,0.0389,0.0468,0.057,0.0433,0.0451,0.0428,0.0414,0.0507,0.0496,0.0597,0.0597,0.0597,0.0597,0,-0.0172,-0.0171,-0.0168,-0.0159,-0.0157,-0.0154,-0.0119,-0.0082,-0.0037,0.0117,0.0164,0.031,0.0484,0.0516,0.067,0.0587,0.0633,0.0592,0.0476,0.048,0.0383,0.0368,0.05,0.0499,0.0498,0.0497,0.0496,0,-0.0182,-0.0177,-0.0155,-0.0137,-0.0141,-0.0129,-0.0099,-0.0066,0.0015,0.0236,0.0353,0.0535,0.0704,0.0816,0.0725,0.0655,0.0644,0.052,0.0468,0.0388,0.0392,0.0379,0.0367,0.0458,0.0456,0.0455,0.0455,0,-0.0179,-0.0172,-0.016,-0.0115,-0.0089,-0.0028,0.0031,0.0121,0.0243,0.0434,0.0729,0.0884,0.0926,0.092,0.0742,0.0666,0.0538,0.0494,0.0564,0.0475,0.0348,0.035,0.0341,0.0447,0.0447,0.0448,0.0448,0.0449,-0.0173,-0.0159,-0.0125,-0.0086,-0.0022,0.011,0.0219,0.0359,0.0588,0.0897,0.0984,0.1184,0.1052,0.0864,0.0711,0.0481,0.0496,0.0394,0.0399,0.0404,0.039,0.0269,0.034,0.0341,0.0341,0.0341,0.0341,0,-0.0145,-0.0129,-0.0087,0.0011,0.0157,0.0171,0.0355,0.0524,0.0877,0.1043,0.1299,0.1173,0.1091,0.0893,0.0542,0.0352,0.0343,0.029,0.0322,0.033,0.0338,0.0322,0.0254,0.0253,0.0253,0.0252,0,0,-0.0129,-0.0083,-0.0053,0.0176,0.0293,0.0515,0.0672,0.0914,0.1053,0.1284,0.134,0.1378,0.1128,0.0857,0.0621,0.0434,0.0421,0.039,0.0475,0.0548,0.0558,0.0408,0.0394,0,0,0,0,0]}],[{"header":{"parameterUnit":"m.s-1","parameterCategory":2,"la1":30.2991,"la2":30.254,"lo1":-89.0895,"lo2":-89.0444,"dy":0.0017,"dx":0.0017,"nx":28,"ny":28,"refTime":"2023-08-03T03:00:00:Z","depth":"4","parameterNumber":2,"parameterNumberName":"U-component_of_CURRENTS"},"data":[0,0,0,0,0,0,0,0,0,0,0,0,0,0,0,0,0,0,0,0,0,0,0,0,0,0,0,0,0,0,0,0,0,0,0,0,0,0,0,0,0,0,0,0,0,0,0,0,0,0,0,0,0,0,0,0,0,0,0.0755,0.0755,0,0.0752,0.0752,0.0752,0.0803,0.0805,0.0806,0.0808,0.0868,0.0868,0.0868,0,0,0,0,0,0,0,0,0,0,0,0,0,0.0738,0.0738,0.0755,0.0755,0.0755,0.0752,0.0752,0.0752,0.0803,0.0805,0.0807,0.0809,0.0868,0.0868,0.0868,0,0,0,0,0,0,0,0,0,0,0,0,0,0.0738,0.0738,0.0755,0.0783,0.0786,0.0752,0.0752,0.0752,0.0802,0.0805,0.0807,0.081,0.0868,0.0868,0.0868,0.0818,0,0,0.0868,0.0868,0,0,0,0,0,0,0,0,0.0738,0.0738,0.0778,0.0781,0.0784,0.0784,0.0768,0.0778,0.0802,0.0792,0.0808,0.0811,0.0846,0.0848,0.0836,0.082,0.0823,0.0868,0.0868,0.0868,0.0868,0,0,0,0,0,0,0,0.0738,0.0738,0.075,0.0779,0.0782,0.0774,0.0777,0.077,0.0803,0.0793,0.0798,0.0802,0.0848,0.0836,0.0838,0.0824,0.0868,0.0868,0.0868,0.0868,0.0954,0.0956,0,0,0,0,0,0,0.0746,0.0739,0.075,0.0751,0.0771,0.0772,0.0776,0.0778,0.0802,0.0809,0.08,0.0805,0.0834,0.0838,0.0841,0.0846,0.0868,0.0868,0.0868,0.0952,0.0954,0.0957,0,0,0,0,0,0,0.0745,0.0747,0.0751,0.0747,0.0748,0.0771,0.0773,0.0777,0.079,0.0807,0.0815,0.0813,0.0837,0.0841,0.0877,0.0847,0.0868,0.0868,0.0949,0.0952,0.0955,0.0816,0,0,0,0,0,0,0.0745,0.0746,0.0752,0.0748,0.0749,0.0741,0.0771,0.0775,0.0789,0.0796,0.082,0.0827,0.0839,0.0877,0.0877,0.0847,0.0868,0.0946,0.095,0.0954,0.0818,0.0814,0.0811,0,0,0,0,0,0.0744,0.0738,0.0752,0.0754,0.0755,0.074,0.0739,0.0762,0.0788,0.0784,0.0827,0.0828,0.0906,0.0878,0.0878,0.0846,0.0944,0.0949,0.0954,0.0819,0.0815,0.0811,0,0,0,0,0,0,0.0732,0.0743,0.0759,0.0757,0.0756,0.0751,0.0749,0.0765,0.0789,0.0813,0.0834,0.0843,0.0878,0.0899,0.0869,0.0901,0.0933,0.0938,0.0831,0.0827,0.0823,0.0852,0.0868,0,0,0,0,0,0.0731,0.0734,0.0739,0.0738,0.0738,0.0745,0.0745,0.0764,0.0783,0.0796,0.0804,0.0847,0.089,0.089,0.0933,0.0914,0.0981,0.0913,0.0909,0.0905,0.0939,0.1065,0.1074,0.0973,0.0973,0.0973,0,0,0.0723,0.0733,0.0733,0.0737,0.0737,0.0711,0.0751,0.0756,0.0744,0.0798,0.0784,0.0838,0.0898,0.0903,0.0918,0.091,0.0953,0.0912,0.0906,0.0944,0.1071,0.108,0.1089,0.0977,0.0976,0.0976,0,0,0.0679,0.0718,0.0688,0.0692,0.0702,0.0706,0.0711,0.0708,0.0724,0.0731,0.0784,0.0845,0.0851,0.0895,0.0921,0.0935,0.0954,0.0926,0.0885,0.1004,0.1012,0.1021,0.1025,0.1036,0.0893,0.0893,0.0893,0,0.0664,0.0639,0.0676,0.0648,0.0653,0.07,0.0667,0.0675,0.0685,0.0716,0.073,0.0851,0.0865,0.0929,0.0909,0.0921,0.0955,0.0869,0.0994,0.1005,0.1016,0.102,0.1033,0.0887,0.0888,0.0888,0.0889,0,0.0575,0.0577,0.0564,0.0547,0.0556,0.0547,0.0571,0.0583,0.0621,0.065,0.0747,0.0809,0.0901,0.0882,0.0873,0.0947,0.0928,0.0988,0.0984,0.1017,0.1019,0.1035,0.0878,0.088,0.0882,0.0884,0,0,0.048,0.0495,0.0487,0.0505,0.0516,0.0525,0.0517,0.0545,0.0593,0.0638,0.0713,0.0771,0.0858,0.0902,0.0926,0.0972,0.1003,0.0968,0.0977,0.0935,0.1173,0.1049,0.1054,0.1067,0.1071,0.1075,0.1105,0,0.0394,0.0337,0.0368,0.0354,0.0345,0.0418,0.0427,0.0484,0.0544,0.062,0.0749,0.084,0.085,0.0899,0.096,0.1004,0.1056,0.0984,0.1185,0.119,0.1048,0.1075,0.1089,0.1118,0.1122,0.1124,0.1127,0,0.0275,0.0277,0.0228,0.0322,0.0328,0.0342,0.0435,0.0458,0.0582,0.065,0.079,0.0877,0.0958,0.0996,0.1132,0.1072,0.1129,0.1163,0.1168,0.1132,0.1101,0.1113,0.1157,0.1155,0.1152,0.115,0.1148,0,0.0193,0.0195,0.0174,0.0188,0.0268,0.0311,0.0375,0.0479,0.0549,0.0692,0.0772,0.0918,0.103,0.1125,0.1177,0.1152,0.1324,0.1323,0.1285,0.1272,0.1431,0.1423,0.1501,0.1501,0.1501,0.1501,0.1501,0,0.0098,0.01,0.0156,0.0163,0.0218,0.03,0.0391,0.0474,0.0623,0.0724,0.0821,0.0927,0.1079,0.1176,0.1204,0.1268,0.1378,0.1292,0.1302,0.1358,0.1343,0.1435,0.1427,0.1502,0.1502,0.1501,0.1501,0,0.0027,0.003,0.0058,0.0148,0.0184,0.0249,0.0417,0.0484,0.0625,0.076,0.0809,0.0968,0.1057,0.1165,0.1312,0.1315,0.137,0.1398,0.1381,0.1387,0.1209,0.1195,0.1307,0.1304,0.1301,0.1299,0.1296,0,-0.0018,-0.0028,0.0054,0.0082,0.0138,0.0242,0.0304,0.0473,0.0547,0.0765,0.0818,0.0966,0.1051,0.1159,0.1253,0.1313,0.1349,0.1349,0.1331,0.1206,0.1205,0.1194,0.1184,0.1292,0.1291,0.129,0.1289,0,-0.0065,-0.0039,-0.0006,0.0047,0.0113,0.0177,0.0293,0.0361,0.0549,0.0673,0.0831,0.0916,0.1037,0.1113,0.12,0.1245,0.1303,0.1319,0.1325,0.1307,0.1189,0.1188,0.1181,0.1279,0.1281,0.1282,0.1282,0,-0.0079,-0.0066,-0.0035,0.0026,0.0073,0.0107,0.0188,0.0309,0.0426,0.0683,0.0724,0.0889,0.1034,0.1081,0.1133,0.1171,0.116,0.114,0.1156,0.1168,0.1109,0.0937,0.0973,0,0,0,0,0,-0.0094,-0.0093,-0.0059,-0.0011,0.0027,0.0057,0.0162,0.0244,0.0428,0.0527,0.065,0.0752,0.088,0.0947,0.0961,0.1016,0.112,0.1022,0.1093,0.1223,0.1235,0.1179,0,0,0,0,0,0,-0.0111,-0.0093,-0.0079,-0.0072,-0.0045,-0.001,0.0055,0.0174,0.0252,0.0453,0.0527,0.0681,0.0798,0.0867,0.0938,0.0957,0.0983,0.1125,0.1123,0.1216,0.1227,0.1236,0.1183,0,0,0,0,0]},{"header":{"parameterUnit":"m.s-1","parameterCategory":2,"la1":30.2991,"la2":30.254,"lo1":-89.0895,"lo2":-89.0444,"dy":0.0017,"dx":0.0017,"nx":28,"ny":28,"refTime":"2023-08-03T03:00:00:Z","depth":"4","parameterNumber":3,"parameterNumberName":"V-component_of_CURRENTS"},"data":[0,0,0,0,0,0,0,0,0,0,0,0,0,0,0,0,0,0,0,0,0,0,0,0,0,0,0,0,0,0,0,0,0,0,0,0,0,0,0,0,0,0,0,0,0,0,0,0,0,0,0,0,0,0,0,0,0,0,-0.0073,-0.0073,0,-0.0101,-0.0102,-0.0103,-0.0115,-0.0114,-0.0114,-0.0113,-0.0116,-0.0117,-0.0117,0,0,0,0,0,0,0,0,0,0,0,0,0,-0.0065,-0.0066,-0.0073,-0.0073,-0.0073,-0.0101,-0.0102,-0.0103,-0.0115,-0.0114,-0.0114,-0.0113,-0.0116,-0.0117,-0.0118,0,0,0,0,0,0,0,0,0,0,0,0,0,-0.0083,-0.0066,-0.0073,-0.0079,-0.0079,-0.0101,-0.0102,-0.0103,-0.0115,-0.0114,-0.0114,-0.0113,-0.0116,-0.0117,-0.0118,-0.0137,0,0,-0.012,-0.012,0,0,0,0,0,0,0,0,-0.0082,-0.0084,-0.0078,-0.0078,-0.0079,-0.01,-0.01,-0.0112,-0.0115,-0.0106,-0.0113,-0.0113,-0.0106,-0.0108,-0.0122,-0.0137,-0.0137,-0.012,-0.0121,-0.0121,-0.0121,0,0,0,0,0,0,0,-0.0081,-0.0083,-0.0089,-0.0078,-0.0078,-0.0092,-0.0094,-0.0103,-0.0113,-0.0107,-0.0107,-0.0103,-0.0107,-0.0121,-0.0122,-0.0137,-0.012,-0.0121,-0.0121,-0.0122,-0.0141,-0.0141,0,0,0,0,0,0,-0.0067,-0.0082,-0.0088,-0.0089,-0.0073,-0.0092,-0.0095,-0.0098,-0.0113,-0.0114,-0.0103,-0.0103,-0.012,-0.0121,-0.0122,-0.0096,-0.0121,-0.0122,-0.0122,-0.0141,-0.0141,-0.0141,0,0,0,0,0,0,-0.0067,-0.0068,-0.0087,-0.0082,-0.0085,-0.0092,-0.0096,-0.0098,-0.0108,-0.011,-0.0111,-0.0109,-0.0119,-0.012,-0.013,-0.0098,-0.0122,-0.0123,-0.0141,-0.0141,-0.0141,-0.0077,0,0,0,0,0,0,-0.0067,-0.0068,-0.0071,-0.0081,-0.0084,-0.0087,-0.0096,-0.0099,-0.0104,-0.0105,-0.0115,-0.0115,-0.0119,-0.0129,-0.0131,-0.0099,-0.0123,-0.0141,-0.0141,-0.0141,-0.0079,-0.0074,-0.0071,0,0,0,0,0,-0.0067,-0.0066,-0.0071,-0.0072,-0.0087,-0.0086,-0.009,-0.0096,-0.0105,-0.0104,-0.012,-0.0115,-0.013,-0.013,-0.0132,-0.01,-0.0141,-0.0141,-0.0141,-0.008,-0.0075,-0.0071,0,0,0,0,0,0,-0.0067,-0.0067,-0.0073,-0.0074,-0.0075,-0.0086,-0.0087,-0.0096,-0.0111,-0.0114,-0.0123,-0.0124,-0.0125,-0.013,-0.013,-0.011,-0.0132,-0.0132,-0.0085,-0.008,-0.0076,-0.0032,-0.0124,0,0,0,0,0,-0.0068,-0.0064,-0.0069,-0.0068,-0.0069,-0.0082,-0.0086,-0.0089,-0.01,-0.0106,-0.011,-0.012,-0.013,-0.0119,-0.0136,-0.0121,-0.0143,-0.0103,-0.0099,-0.0095,-0.0063,-0.0122,-0.012,-0.0142,-0.0142,-0.0142,0,0,-0.0066,-0.0065,-0.0063,-0.0067,-0.0072,-0.0042,-0.0083,-0.0083,-0.0049,-0.0104,-0.0072,-0.0118,-0.0132,-0.0121,-0.0118,-0.0113,-0.0098,-0.0095,-0.0091,-0.0061,-0.0122,-0.012,-0.0118,-0.0142,-0.0142,-0.0142,0,0,-0.0026,-0.0062,-0.0027,-0.0024,-0.0021,-0.0029,-0.0025,-0.0034,-0.0033,-0.0019,-0.0057,-0.0089,-0.0078,-0.0092,-0.0093,-0.0081,-0.0094,-0.0079,0.0004,-0.0055,-0.0053,-0.0052,-0.006,-0.006,-0.0054,-0.0054,-0.0054,0,-0.0012,0.0019,-0.0019,0.0023,0.0036,-0.0011,0.0036,0.0033,0.0026,0.0024,0.0008,-0.0032,-0.0058,-0.0049,-0.0036,-0.0067,-0.0086,-0.0009,-0.0048,-0.0047,-0.0047,-0.0056,-0.0057,-0.0051,-0.0051,-0.0052,-0.0052,0,0.007,0.0089,0.0104,0.0147,0.0151,0.0169,0.0168,0.0164,0.0149,0.0143,0.0125,0.0067,0.0051,0.0032,0.0016,0.001,0.0002,-0.0055,-0.0054,-0.0041,-0.0052,-0.0054,-0.0046,-0.0048,-0.0048,-0.0049,0,0,0.013,0.0161,0.0172,0.0196,0.0211,0.0221,0.0263,0.0277,0.0285,0.0268,0.028,0.0244,0.0184,0.0177,0.0122,0.0089,0.0066,0.0044,0.0039,0.0049,-0.002,-0.0014,-0.0016,0.0,-0.0,-0.0001,-0.0021,0,0.0214,0.03,0.0302,0.0377,0.0403,0.0373,0.0413,0.041,0.0385,0.0377,0.0316,0.0292,0.0253,0.0219,0.0188,0.0066,0.0063,0.0081,-0.0043,-0.0045,-0.0034,-0.0018,-0.0002,-0.0023,-0.0023,-0.0024,-0.0024,0,0.0307,0.0342,0.043,0.0456,0.0468,0.0516,0.0518,0.055,0.0521,0.0497,0.0465,0.0393,0.0348,0.0292,0.0175,0.0189,0.0123,0.0043,0.0038,0.0027,-0.0044,-0.0047,-0.0028,-0.0028,-0.0028,-0.0027,-0.0027,0,0.0347,0.0428,0.0491,0.0507,0.0541,0.0576,0.06,0.0585,0.06,0.0563,0.0539,0.0472,0.0422,0.032,0.0182,0.0171,0.0047,-0.0011,-0.0046,-0.0046,-0.0073,-0.0075,-0.006,-0.006,-0.006,-0.006,-0.006,0,0.0412,0.0463,0.0516,0.0547,0.0611,0.0625,0.0678,0.0676,0.0678,0.0677,0.0605,0.0565,0.0422,0.0325,0.0212,0.0089,0.007,-0.0007,-0.0053,-0.0044,-0.0042,-0.0074,-0.0075,-0.0061,-0.006,-0.006,-0.006,0,0.0432,0.0474,0.0537,0.0599,0.0629,0.0671,0.0748,0.0768,0.076,0.0754,0.0743,0.0644,0.0503,0.0373,0.0191,0.0125,-0.0011,-0.0038,0.0031,-0.0015,-0.006,-0.0058,-0.008,-0.008,-0.008,-0.008,-0.008,0,0.0445,0.0481,0.0571,0.0612,0.065,0.0724,0.077,0.081,0.0821,0.078,0.0764,0.0656,0.0567,0.0348,0.0201,0.0025,-0.0004,-0.0037,-0.007,-0.002,-0.0063,-0.0061,-0.0059,-0.008,-0.008,-0.008,-0.008,0,0.0445,0.0483,0.0526,0.0621,0.0691,0.0763,0.083,0.085,0.0863,0.0859,0.077,0.0653,0.0518,0.0342,0.023,0.0087,-0.0013,-0.0038,-0.0039,-0.0071,-0.0021,-0.0063,-0.0061,-0.008,-0.008,-0.008,-0.008,0,0.0435,0.0467,0.0534,0.0615,0.0706,0.0777,0.0815,0.0834,0.0859,0.0816,0.0782,0.0631,0.0557,0.0375,0.0243,0.0131,0.009,0.0055,0.0048,0.0046,0.0078,0.0159,0.0138,0,0,0,0,0,0.0411,0.0458,0.053,0.062,0.071,0.0772,0.0838,0.0861,0.0874,0.0821,0.0811,0.0674,0.0483,0.0389,0.0277,0.023,0.0068,0.0096,0.0024,-0.008,-0.008,-0.0066,0,0,0,0,0,0,0.0403,0.046,0.0515,0.0608,0.0681,0.0778,0.0829,0.0832,0.0801,0.0791,0.0687,0.0653,0.0462,0.0547,0.0275,0.024,0.018,0.0011,0.0009,-0.008,-0.008,-0.008,-0.0065,0,0,0,0,0]}]]